TimeEDT,TemperatureF,Dew PointF,Humidity,Sea Level PressureIn,VisibilityMPH,Wind Direction,Wind SpeedMPH,Gust SpeedMPH,PrecipitationIn,Events,Conditions,WindDirDegrees,DateUTC
12:52 AM,60.1,57.9,93,30.08,10.0,Calm,Calm,-,N/A,,Scattered Clouds,0,2013-10-05 04:52:00
1:52 AM,60.1,57.9,93,30.08,10.0,Calm,Calm,-,N/A,,Overcast,0,2013-10-05 05:52:00
2:52 AM,61.0,57.9,90,30.07,10.0,NE,4.6,-,N/A,,Overcast,50,2013-10-05 06:52:00
3:52 AM,61.0,57.0,87,30.06,10.0,ENE,6.9,-,N/A,,Overcast,60,2013-10-05 07:52:00
4:52 AM,61.0,57.9,90,30.06,10.0,ENE,3.5,-,N/A,,Overcast,70,2013-10-05 08:52:00
5:52 AM,61.0,57.9,90,30.08,10.0,Calm,Calm,-,N/A,,Overcast,0,2013-10-05 09:52:00
6:52 AM,61.0,59.0,93,30.09,10.0,Calm,Calm,-,0.00,,Overcast,0,2013-10-05 10:52:00
7:52 AM,61.0,59.0,93,30.10,7.0,Calm,Calm,-,0.01,,Overcast,0,2013-10-05 11:52:00
8:52 AM,62.1,59.0,90,30.10,10.0,ENE,3.5,-,0.01,,Overcast,70,2013-10-05 12:52:00
9:33 AM,62.6,59.0,88,30.11,10.0,Calm,Calm,-,N/A,,Overcast,0,2013-10-05 13:33:00
9:50 AM,62.6,59.0,88,30.11,10.0,NE,3.5,-,N/A,,Overcast,50,2013-10-05 13:50:00
9:52 AM,63.0,60.1,90,30.12,10.0,Calm,Calm,-,N/A,,Overcast,0,2013-10-05 13:52:00
10:52 AM,64.0,59.0,84,30.10,10.0,East,4.6,-,N/A,,Overcast,80,2013-10-05 14:52:00
11:52 AM,66.0,57.9,75,30.10,10.0,Variable,3.5,-,N/A,,Overcast,0,2013-10-05 15:52:00
12:07 PM,64.4,57.2,77,30.09,10.0,East,4.6,-,N/A,,Overcast,90,2013-10-05 16:07:00
12:17 PM,64.4,57.2,77,30.09,10.0,ENE,4.6,-,N/A,,Overcast,70,2013-10-05 16:17:00
12:52 PM,66.0,57.9,75,30.09,10.0,East,4.6,-,N/A,,Overcast,80,2013-10-05 16:52:00
1:52 PM,64.9,57.9,78,30.08,10.0,East,5.8,-,N/A,,Overcast,80,2013-10-05 17:52:00
2:52 PM,64.9,57.0,75,30.08,10.0,East,6.9,-,N/A,,Overcast,90,2013-10-05 18:52:00
3:52 PM,64.0,57.0,78,30.08,10.0,East,4.6,-,N/A,,Overcast,90,2013-10-05 19:52:00
4:52 PM,64.0,57.0,78,30.09,10.0,NE,3.5,-,N/A,,Partly Cloudy,50,2013-10-05 20:52:00
5:52 PM,63.0,57.0,81,30.09,10.0,NE,3.5,-,N/A,,Clear,50,2013-10-05 21:52:00
6:52 PM,61.0,57.0,87,30.10,10.0,Calm,Calm,-,N/A,,Clear,0,2013-10-05 22:52:00
7:52 PM,57.9,55.9,93,30.11,10.0,Calm,Calm,-,N/A,,Clear,0,2013-10-05 23:52:00
8:52 PM,57.9,55.9,93,30.11,10.0,Calm,Calm,-,N/A,,Clear,0,2013-10-06 00:52:00
9:52 PM,57.9,55.0,90,30.12,10.0,Calm,Calm,-,N/A,,Scattered Clouds,0,2013-10-06 01:52:00
10:52 PM,59.0,55.9,90,30.13,10.0,Calm,Calm,-,N/A,,Partly Cloudy,0,2013-10-06 02:52:00
11:52 PM,57.9,55.9,93,30.12,10.0,Calm,Calm,-,N/A,,Clear,0,2013-10-06 03:52:00